Flag for U.S.A. Weather past 2 weeks in Eau Claire, Wisconsin, U.S.A.

45 °F

Passing clouds.

Feels Like: 41 °F
Forecast: 43 / 59 °F
Wind: 7 mph from Northwest

Location: Eau Claire County Airport

Current Time: Oct 9, 2015 at 6:14:27 AM

Latest Report: Oct 9, 2015 at 5:56 AM

Visibility: 10 mi

Pressure: 30.19 "Hg

Humidity: 80%

Dew point: 39 °F

Location of Eau ClaireLocation

Historic Weather in Eau Claire — Graph


Eau Claire temperature yesterday

Maximum temperature yesterday: 67 °F (at 1:04 PM)
Minimum temperature yesterday: 50 °F (at 5:56 AM)
Average temperature yesterday: 56 °F

Past Weeks' High & Low Weather Summary

High80 °F (Sep 27, 3:56 PM)100% (Oct 7, 7:56 AM)30.56 "Hg (Oct 7, 7:56 AM)
Low34 °F (Sep 30, 6:56 AM)30% (Sep 29, 2:56 PM)29.82 "Hg (Oct 8, 10:56 AM)
Average56 °F72%30.21 "Hg
* Reported Sep 24 4:56 AM — Oct 9 4:56 AM, Eau Claire, Weather by CustomWeather, © 2015

Note: Actual official high and low records may vary slightly from our data, if they occured in-between our weather recording intervals... More about our weather records


Eau Claire weather history for previous 24 hours

Time TempWeatherWind HumidityBarometerVisibility
4:56 AM
Fri, Oct 9
49 °FOvercast.8 mph74%30.17 "Hg10 mi
3:56 AM49 °FOvercast.8 mph77%30.15 "Hg10 mi
2:56 AM49 °FOvercast.9 mph77%30.13 "Hg10 mi
1:56 AM50 °FOvercast.9 mph77%30.11 "Hg10 mi
12:56 AM50 °FOvercast.8 mph77%30.10 "Hg10 mi
11:56 PM
Thu, Oct 8
51 °FOvercast.9 mph77%30.09 "Hg10 mi
10:56 PM52 °FMostly cloudy.12 mph77%30.07 "Hg10 mi
9:56 PM52 °FMostly cloudy.12 mph83%30.06 "Hg10 mi
8:56 PM53 °FOvercast.13 mph83%30.03 "Hg10 mi
7:56 PM54 °FLight rain. Mostly cloudy.9 mph90%30.00 "Hg7 mi
6:56 PM55 °FLight rain. Mostly cloudy.10 mph83%29.97 "Hg10 mi
5:56 PM56 °FLight rain. Overcast.7 mph84%29.94 "Hg10 mi
4:56 PM56 °FLight rain. Overcast.13 mph84%29.92 "Hg10 mi
3:56 PM60 °FLight rain. Partly sunny.18 mph78%29.88 "Hg10 mi
2:56 PM67 °FBroken clouds.15 mph68%29.83 "Hg10 mi
1:56 PM67 °FBroken clouds.8 mph71%29.82 "Hg10 mi
1:04 PM67 °FScattered clouds.8 mph73%29.82 "Hg10 mi
12:56 PM66 °FPartly sunny.9 mph73%29.83 "Hg10 mi
11:56 AM63 °FOvercast.7 mph84%29.83 "Hg10 mi
10:56 AM61 °FMostly cloudy.5 mph87%29.82 "Hg10 mi
9:56 AM57 °FOvercast.7 mph90%29.83 "Hg10 mi
8:56 AM54 °FMostly cloudy.7 mph93%29.84 "Hg9 mi
7:56 AM52 °FMostly cloudy.3 mph97%29.85 "Hg9 mi
6:56 AM51 °FRain. Fog.12 mph92%29.88 "Hg3 mi
Weather by CustomWeather, © 2015

See weather overviewHow to use our weather pages